Regional Weather Roundup
Issued by NWS

Home | Current Version | Previous Version | Text Only | Print | Product List | Glossary Off
Versions: 1 2 3 4 5 6 7 8 9 10 11 12 13 14 15 16 17 18 19 20 21 22 23 24 25 26 27 28 29 30 31 32 33 34 35 36 37 38 39 40 41 42 43 44 45 46 47 48 49 50

000
ASUS44 KMEG 180700
RWRTN
TENNESSEE HOURLY STATE WEATHER ROUNDUP
NATIONAL WEATHER SERVICE MEMPHIS TN
100 AM CST SAT NOV 18 2017

TNZ002-004-019-021-049-052-054-088>092-180800-
WEST TENNESSEE

CITY           SKY/WX    TMP DP  RH WIND       PRES   REMARKS
MEMPHIS INTL   MOCLDY    69  58  67 S24G37    29.75F
NWS MEMPHIS      N/A     69 N/A N/A MISG        N/A
JACKSON        CLOUDY    65  57  75 S12G21    29.77F
DYERSBURG      CLOUDY    67  57  70 S12G23    29.71F
$$

TNZ008-025-027-028-033-062-065-066-180800-
NORTH MIDDLE TENNESSEE

CITY           SKY/WX    TMP DP  RH WIND       PRES   REMARKS
NASHVILLE      MOCLDY    59  39  47 S13       29.87F
CLARKSVILLE    CLOUDY    63  50  62 S17G26    29.78F
SMYRNA         PTCLDY    58  39  49 S8        29.89F
CROSSVILLE     CLOUDY    53  39  59 S10G22    29.96R
$$

TNZ061-075-076-078-094-096-097-180800-
SOUTH MIDDLE TENNESSEE

CITY           SKY/WX    TMP DP  RH WIND       PRES   REMARKS
WINCHESTER     CLEAR     55  36  47 S14       29.96S
$$

TNZ017-018-042-046-047-180800-
NORTHEAST TENNESSEE

CITY           SKY/WX    TMP DP  RH WIND       PRES   REMARKS
TRI CITIES     CLOUDY    42  37  82 CALM      29.98F
$$

TNZ012-013-036-069-073-074-180800-
CENTRAL EAST TENNESSEE

CITY           SKY/WX    TMP DP  RH WIND       PRES   REMARKS
KNOXVILLE      CLOUDY    46  43  89 CALM      29.96F
OAK RIDGE      MOCLDY    51  40  65 CALM      29.99F
$$

TNZ083-085-099-180800-
SOUTHEAST TENNESSEE

CITY           SKY/WX    TMP DP  RH WIND       PRES   REMARKS
CHATTANOOGA    CLEAR     47  41  80 CALM      30.00F
$$

SKY/WX REPORTED AS FAIR MEANS FEW OR NO CLOUDS BELOW
12 THOUSAND FEET.





USA.gov is the U.S. government's official web portal to all federal, state and local government web resources and services.